Weather Service Report


788 
ASUS42 KRAH 291910
RWRRAH
NORTH CAROLINA WEATHER ROUNDUP
NATIONAL WEATHER SERVICE RALEIGH NC
300 PM EDT THU SEP 29 2016

NOTE: "FAIR" INDICATES FEW OR NO CLOUDS BELOW 12,000 FEET WITH NO
SIGNIFICANT WEATHER AND/OR OBSTRUCTIONS TO VISIBILITY.

NCZ001-053-055-056-065-067-292000-
WESTERN NORTH CAROLINA
  
CITY           SKY/WX    TMP DP  RH WIND       PRES   REMARKS
ASHEVILLE      PTSUNNY   75  53  46 S14       29.98F                  
JEFFERSON      PTSUNNY   65  59  80 SE6       30.04F                  
MORGANTON      MOSUNNY   76  62  61 SE5       30.01F                  
HICKORY        PTSUNNY   79  64  60 E5        29.96F                  
RUTHERFORDTON  MOSUNNY   80  59  49 SE6       29.96F                  
MOUNT AIRY     CLOUDY    75  68  80 E8G16     30.00F                  
BOONE          PTSUNNY   66  57  71 SE12      30.04F                  
$$
 
NCZ021-022-025-041-071-084-088-292000-
CENTRAL NORTH CAROLINA
  
CITY           SKY/WX    TMP DP  RH WIND       PRES   REMARKS
CHARLOTTE      PTSUNNY   78  66  66 E8G18     29.95F                  
GREENSBORO     PTSUNNY   76  68  76 SE12      29.98F                  
WINSTON-SALEM  PTSUNNY   74  65  73 SE8       29.99F                  
RALEIGH-DURHAM PTSUNNY   78  69  73 SE12      30.00F                  
FORT BRAGG     PTSUNNY   75  68  78 S5        29.98S                  
FAYETTEVILLE   PTSUNNY   75  68  78 SE8       29.97F                  
BURLINGTON     CLOUDY    78  68  71 E9        29.98F                  
LAURINBURG     CLOUDY    78  71  79 E6        29.97F                  
$$
 
NCZ011-015-027-028-043-044-047-080-103-292000-
NORTHEASTERN NORTH CAROLINA
  
CITY           SKY/WX    TMP DP  RH WIND       PRES   REMARKS
ROCKY MT-WILSO CLOUDY    76  73  91 E5        30.00F                  
GREENVILLE     CLOUDY    75  72  88 SE6       30.02F                  
WASHINGTON     MOSUNNY   74  69  84 E10       30.02F                  
ELIZABETH CITY LGT RAIN  77  73  87 NE10      30.05S                  
MANTEO         PTSUNNY   77  71  83 E7        30.03F                  
CAPE HATTERAS  PTSUNNY   83  74  74 NW7       30.02S                  
$$
 
NCZ078-087-090-091-093-098-101-292000-
SOUTHEASTERN NORTH CAROLINA
  
CITY           SKY/WX    TMP DP  RH WIND       PRES   REMARKS
LUMBERTON      CLOUDY    73  69  87 SE8       29.97F                  
GOLDSBORO      PTSUNNY   76  74  95 E12       29.97F                  
KINSTON        PTSUNNY   77  70  78 E9        30.01F                  
KENANSVILLE    CLOUDY    73  70  88 E3        29.99F                  
NEW BERN       MOSUNNY   78  71  79 E8        30.01F                  
CHERRY POINT   CLOUDY    81  72  74 NE10      30.01F                  
BEAUFORT       CLOUDY    78  72  81 E6        30.01F                  
JACKSONVILLE   CLOUDY    81  72  74 E8        29.97F                  
WILMINGTON     PTSUNNY   79  71  76 E3        29.98F                  
$$

  

Return to Home page


Western Regional Climate Center, wrcc@dri.edu